Theta_e
299 300 301 303 304 305 306 307 308 311 315 318 323 325 329 339 339 345 347 346 340 334 330 327 323 320 318 312 307 303 300 302
297 297 299 301 303 304 304 306 308 311 313 316 320 324 329 337 342 342 343 342 333 327 324 321 319 315 310 308 305 299 298 298
296 297 299 300 301 303 304 305 308 311 312 314 318 324 328 337 341 340 341 333 324 320 316 313 312 308 305 305 302 298 297 297
296 297 298 299 300 301 303 304 306 310 311 314 319 323 327 336 338 337 330 320 315 311 307 306 305 303 301 301 300 298 298 299
294 295 297 299 301 302 302 303 306 308 308 314 318 323 325 331 335 323 318 313 310 307 304 303 302 300 299 300 301 298 297 298
296 297 299 301 303 302 303 305 306 306 308 314 318 323 326 332 321 316 312 310 305 303 301 300 298 298 297 297 297 295 295 296
296 297 299 302 303 304 303 303 305 306 308 315 321 324 327 329 316 312 308 304 303 302 298 297 296 295 295 294 294 294 293 295
303 302 300 300 301 302 301 302 303 306 310 317 323 327 325 316 311 308 307 303 301 301 297 296 296 293 294 293 293 293 293 294
304 302 304 304 306 305 302 302 303 309 316 318 323 321 315 311 309 306 302 300 298 295 292 293 293 293 292 293 293 294 293 293
300 299 302 304 305 305 303 304 308 313 317 318 314 312 309 308 304 300 296 294 292 292 290 289 291 292 293 292 293 293 294 293
297 298 300 300 301 303 302 314 313 314 314 309 307 306 304 302 298 295 293 292 290 289 289 288 289 292 292 292 292 292 293 292
295 296 295 296 298 300 304 307 308 305 303 302 302 300 299 298 297 294 291 288 289 289 289 289 290 291 291 292 293 292 292 291
293 293 294 294 295 297 301 303 302 300 299 297 296 296 294 293 292 292 290 290 291 291 291 291 290 289 291 292 291 291 291 289
291 291 293 294 295 295 297 301 300 297 295 294 294 293 291 290 289 288 290 291 291 291 291 293 293 291 290 289 288 288 288 288
291 291 292 293 294 294 296 297 297 295 294 293 293 291 291 290 290 289 286 289 290 290 290 290 290 289 288 288 287 287 287 288
293 291 291 292 292 293 296 296 296 295 295 294 294 293 292 291 290 290 290 289 288 288 289 289 288 288 287 287 287 288 288 288
291 290 290 290 290 292 295 296 295 295 295 294 294 293 292 292 293 292 291 290 289 288 289 289 289 288 288 288 288 289 287 287
290 287 289 290 290 292 293 293 292 292 292 291 292 292 292 293 292 291 291 291 291 291 290 289 291 291 290 289 289 289 288 288
291 290 291 291 290 292 293 293 293 292 292 293 292 293 293 293 292 292 292 292 292 292 291 290 287 291 289 289 289 289 289 288
291 290 290 291 292 293 293 293 293 293 293 294 294 293 293 293 293 293 293 292 291 290 289 289 286 291 290 290 290 290 290 290
Wind_Speed
23 22 21 19 17 15 16 14 14 13 13 14 12 11 12 14 16 17 16 15 14 15 15 14 15 16 16 15 17 11 15 16
25 22 22 22 20 18 15 15 13 13 12 13 13 13 13 16 16 16 15 14 13 16 16 15 15 18 17 18 20 18 14 17
25 24 22 22 21 18 15 16 15 14 12 11 12 15 14 16 16 14 13 14 16 19 20 17 17 18 13 19 18 14 18 17
24 23 22 22 21 19 18 17 17 14 13 12 12 13 14 15 15 14 14 16 18 20 20 21 18 14 28 28 23 16 17 14
21 20 20 20 19 17 17 17 15 13 14 14 14 12 13 15 14 15 18 18 19 20 20 21 20 20 32 31 27 18 14 13
21 18 17 19 19 18 17 16 15 15 15 14 14 11 12 11 18 19 19 17 19 19 20 20 21 18 30 28 26 18 16 11
19 18 18 19 19 18 17 17 16 14 14 14 13 10 13 16 19 20 19 18 17 17 20 23 23 20 28 28 20 15 17 13
15 14 14 15 17 15 14 16 13 13 12 13 10 9 18 21 22 20 17 19 20 16 18 20 26 22 23 25 21 16 15 12
16 14 13 13 13 13 16 17 17 15 12 10 8 14 19 21 19 17 20 18 20 20 23 19 19 19 16 21 22 16 13 11
17 14 11 10 8 5 8 17 24 18 13 10 16 18 15 16 23 18 21 19 20 22 25 17 14 15 20 21 16 19 17 12
13 13 10 10 10 11 11 4 20 23 15 21 20 21 19 20 24 22 18 13 19 18 18 18 16 12 15 24 22 21 18 13
14 13 12 12 12 15 10 18 23 27 26 24 22 23 21 20 16 16 17 13 11 17 17 18 17 15 13 13 13 15 20 16
12 12 11 14 14 16 13 17 25 25 25 24 23 19 21 19 16 14 16 13 8 12 14 17 19 16 13 16 13 11 11 12
11 12 13 14 16 16 15 13 24 24 23 19 19 18 17 18 19 20 30 26 18 19 14 14 13 24 25 23 22 20 14 10
10 12 14 15 17 17 15 14 18 25 24 23 20 21 17 19 19 20 21 19 26 24 25 25 25 26 27 25 22 16 11 10
11 14 15 17 18 18 16 16 20 27 24 31 20 19 18 17 18 19 16 16 16 15 20 21 27 27 25 22 20 16 13 10
11 15 15 18 19 16 16 19 22 26 20 18 20 18 17 20 16 16 16 16 16 15 15 18 20 21 19 16 13 11 11 11
13 14 14 17 19 15 17 22 25 22 21 32 24 17 16 17 16 17 16 16 15 14 13 14 13 14 12 11 11 12 11 10
16 16 15 18 18 15 17 21 24 17 15 15 21 17 16 16 16 16 15 14 14 13 14 11 11 13 12 12 11 10 10 9
16 19 17 16 14 13 17 17 18 15 15 15 15 16 15 15 15 14 14 15 15 14 14 12 10 12 12 12 12 10 9 8
Wind_Direction
294 294 292 284 279 276 278 278 271 277 280 283 284 277 261 234 229 217 202 191 172 161 151 149 149 131 129 120 110 95 102 100
294 291 285 285 283 280 273 275 275 273 273 270 274 274 258 235 218 214 197 176 146 132 132 142 134 121 117 118 113 111 94 94
291 289 284 282 277 275 274 267 267 266 269 262 264 270 264 242 214 197 183 148 133 126 122 121 121 115 117 119 110 108 111 105
291 285 280 277 272 270 267 266 261 258 269 260 253 262 267 231 206 174 134 128 126 122 120 119 122 116 119 116 115 112 112 99
283 277 275 278 273 270 267 264 261 257 263 255 249 244 253 236 188 129 129 131 127 124 122 123 125 126 125 123 126 123 122 113
285 276 273 271 271 264 261 255 252 257 255 252 246 235 240 211 134 130 131 132 131 128 124 124 120 122 121 122 129 120 105 111
276 271 267 269 266 258 248 248 247 244 245 247 234 227 231 158 134 135 129 125 123 132 127 125 124 121 123 126 126 104 108 115
307 279 262 253 251 244 236 239 233 228 224 228 213 210 139 136 133 134 135 128 126 129 118 112 121 120 127 126 119 110 110 108
325 318 298 269 257 241 227 220 217 216 203 210 194 142 132 131 127 127 119 123 119 120 107 110 116 116 127 115 109 114 115 116
333 322 320 333 326 297 264 219 203 189 187 161 123 120 118 118 113 108 103 119 119 116 111 115 110 114 113 91 97 104 116 116
337 338 343 360 1 355 320 96 154 164 146 121 115 109 108 110 114 111 107 115 111 125 116 118 123 121 95 100 98 99 103 108
348 357 5 17 15 17 22 84 99 109 112 112 109 106 105 105 105 106 105 104 125 116 125 122 114 117 117 115 108 105 107 105
10 11 20 32 32 33 41 97 106 105 104 105 103 99 99 99 90 97 106 88 90 124 122 120 128 125 127 120 121 120 117 117
21 29 44 47 49 46 45 82 103 104 101 101 104 102 99 98 100 91 75 84 73 68 80 109 98 106 107 104 101 98 111 141
32 46 49 55 62 60 55 71 95 99 101 104 102 100 102 103 102 101 95 76 80 85 93 100 104 113 107 103 101 99 87 99
32 51 52 61 63 66 72 83 96 93 95 97 98 100 99 104 102 108 120 115 111 100 85 103 103 103 105 109 113 110 93 85
44 54 54 59 58 63 79 86 88 89 94 96 96 98 101 108 116 112 109 111 108 107 110 90 93 99 94 85 83 97 100 89
59 53 61 68 60 66 83 89 88 85 85 95 100 106 111 108 106 107 111 112 114 114 114 120 121 112 99 94 90 88 90 88
61 66 62 65 67 61 69 76 84 89 97 102 106 103 104 105 108 111 112 112 112 113 111 101 97 111 106 98 97 91 85 93
61 63 54 62 65 68 79 87 94 97 99 100 99 99 101 103 105 107 111 111 107 108 109 101 96 101 106 102 95 94 97 92